星链-3548 (STARLINK-3548 )

导读

STARLINK-3548是由美国于2022年3月3日发射的星链系列卫星,隶属于SpaceX公司的星链互联网星座项目,该项目旨在为全球提供低延迟、高速率的宽带互联网覆盖。作为星链组网的组成单元,它在近地轨道运行,支撑星座全球互联网络服务的搭建,是美国低轨卫星互联网建设的一部分。

基本信息
目录编号:
51864
目录名称:
STARLINK-3548
国际标识:
2022-022N
轨道中心:
EARTH
卫星名称:
星链-3548
卫星全名:
星链-3548 (STARLINK-3548 )
卫星状态:
在轨 (已飞行1646 天)
发射日期:
2022-03-03 UTC
国别 :
美国 (US)
星等 :
--
轨道信息
数据来源 国际轨道数据 AOE轨道数据
星历时间 2026-09-03T11:18:31+0800
1天前
查看轨道信息
2026-09-01T23:00:00+0800
2天前
查看轨道信息
半长轴 6837.867km 6837.843km
偏心率 0.0000918 0.0000899
轨道倾角 53.160° 53.158°
近地点辐角 88.492° 71.336°
升交点赤经 284.565° 291.650°
平近点角 271.618° 201.871°
近地点 459.102km 459.091km
远地点 460.358km 460.321km
周期 93.787分钟 93.786分钟
每日圈数 15.354012 15.35409
详细信息
固有亮度:
5
最大亮度:
2.5
卫星平台:
Starlink v1.5
覆盖范围:
全球
运营商:
太空探索技术公司
运营商所在国:
美国
制造商(研发单位):
太空探索技术公司
制造商所在国:
美国
使用方式:
暂无
卫星简介
星链(Starlink)计划是由太空探索技术公司(SpaceX)提出的一个巨型低轨卫星互联网星座项目,计划在2019年至2024年间在太空搭建由约1.2万颗卫星组成的“星链”网络,其中1584颗将部署在地球上空550千米处的近地轨道,并从2020年开始工作。该卫星仍在工作。
2D轨道图
3D轨道图
轨道高度分析图
轨道倾角分析图
轨道综合分析图
查看轨道综合分析图
交会数据列表
事件ID 空间交会对象 最接近时刻(TCA) 交会距离 交会风险概率(CRP) 交会风险指数(CRI) 操作
CDM_260904-065505-186406-827921
2026-09-04T
06:55:57+0000
2.083 km
极远距离
1.672101E-6 低风险 0.39
CDM_260904-211303-622505-186421
2026-09-04T
21:13:48+0000
2.835 km
极远距离
1.403055E-6 低风险 0.38
CDM_260905-002305-186406-349421
2026-09-05T
00:23:26+0000
2.778 km
极远距离
1.167417E-6 低风险 0.36
CDM_260905-112005-186406-350221
2026-09-05T
11:20:03+0000
2.949 km
极远距离
1.095093E-6 低风险 0.36
CDM_260905-085905-186406-350221
2026-09-05T
08:59:25+0000
2.964 km
极远距离
1.089203E-6 低风险 0.36
CDM_260905-061505-186405-503421
2026-09-05T
06:15:23+0000
2.885 km
极远距离
9.082721E-7 极低风险 0.34